Terminal Aerodrome Forecast
Issued by NWS

Home | Current Version | Previous Version | Text Only | Print | Product List | Glossary On
Versions: 1 2 3 4 5 6 7 8 9 10 11 12 13 14 15 16
000
FTUS41 KGYX 010523
TAFPSM
TAF
KPSM 010523Z 0106/0206 03006KT P6SM -SHRA OVC015
     FM010700 VRB04KT 4SM -SHRA BR OVC007
     FM011100 03010KT 5SM -SHRA BR OVC012
     FM020000 02007KT P6SM VCSH SCT007 OVC012=

USA.gov is the U.S. government's official web portal to all federal, state and local government web resources and services.